Capitol Logistics 2856


ZGHA
Changsha Huanghua International Airport
Changcha, CN
PANC
Ted Stevens Anchorage International Airport
Anchorage, US

Activity Log

Date Flight Route Aircraft Duration
12/26/2019 CPX2856 DPR02D DAPRO A461 HOK W56 VYK G212 GIRLO N222 VALDA H222 MCG TAGER8 B744 9h 38m

Route Details

Aircraft Information
Primary: Boeing 747-400BCF
Backup: Boeing 777-200LRF
Route Data
Distance: 4128nm
Sched. Duration: 9h 19m
Avg. Duration: 9h 38m (+18m)
Times Flown: 1
Recm'd Route: DPR02D DAPRO A461 HOK W56 VYK G212 GIRLO N222 VALDA H222 MCG TAGER8
Planned Altitude: 33,000ft
Origin Wx: ZGHA 252000Z 06002MPS 3300 BR NSC 05/04 Q1025 BECMG TL2100 2500
Dest. Wx: PANC 252025Z 05007KT 10SM VCFG SCT002 M06/M07 A2975 RMK AO2 VCFG E-S I1001 T10611072
Notes: OPERATED FOR SKYLEASE CARGO

Financial History
Total Freight: 145,028lbs
Average Load: 145,028lbs/flt
Fuel Used: 172,289lbs
Avg. Fuel Used: 172,289lbs/flt
Fuel Expense: $137,831
Avg. Fuel Expense: $137,831
Avg. Fuel Cost: $0.80/lbs
Total Gross Income: $680,181
Pilot Pay: $259
Total Expenses: $73,512
Total Revenue: $466,344
Average Revenue: $680,181.31